Location: Amherst
(42.3800°N, 72.5240°W)
Time: 12:08:51
(UTC-04:00)

ISS - Pass Details

Date: 24 May 2021
Orbit: 417 x 422 km, 51.6° (Epoch: 14 June)

Event Time Altitude Azimuth Distance (km) Brightness Sun altitude
Rises 00:00:25 0° 305° (NW) 2,369 0.7 -25.9°
Reaches altitude 10° 00:02:32 10° 309° (NW) 1,504 -0.3 -26.0°
Enters shadow 00:04:00 23° 315° (NW) 934 -1.5 -26.0°
